Find Local Weather

World > North America > United States > Vermont

Lyndonville, Vermont Regional Weather

Lat: 44.53N, Lon: 72W
Wx Zone: VTZ007
Feedback
Expires:201804241900;;438401
ASUS41 KBTV 241830
RWRBTV
VERMONT REGIONAL WEATHER ROUNDUP
NATIONAL WEATHER SERVICE BURLINGTON VT
200 PM EDT TUE APR 24 2018

NOTE: "FAIR" INDICATES FEW OR NO CLOUDS BELOW 12,000 FEET WITH NO 
SIGNIFICANT WEATHER AND/OR OBSTRUCTIONS TO VISIBILITY.

* THESE REPORTS ARE NOT UNDER NWS QUALITY CONTROL AND/OR DO NOT
  REPORT WEATHER SUCH AS PRECIPITATION AND FOG.


VTZ001>019-241900-
_____VERMONT_____

  
CITY           SKY/WX    TMP DP  RH WIND       PRES   REMARKS
BURLINGTON     FAIR      71  25  17 S15       30.18F                  
6HR MIN TEMP:  56; 6HR MAX TEMP:  72;                                

MONTPELIER     FAIR      67  20  16 S9G16     30.24F                  
6HR MIN TEMP:  44; 6HR MAX TEMP:  68;                                

MORRISVILLE    FAIR      70  19  14 S9        30.19F                  
6HR MIN TEMP:  38; 6HR MAX TEMP:  70;                                

ST. JOHNSBURY*   N/A     69  22  16 MISG      30.18F                  
6HR MIN TEMP:  33; 6HR MAX TEMP:  69;                                

LYNDONVILLE*   FAIR      68  21  16 S9        30.21F                  
6HR MIN TEMP:  38; 6HR MAX TEMP:  69;                                

MIDDLEBURY*    FAIR      67  24  19 SW9G18    30.22S                  
6HR MIN TEMP:  54; 6HR MAX TEMP:  68;                                

RUTLAND*       FAIR      67  26  21 VRB5      30.22F                  
6HR MIN TEMP:  43; 6HR MAX TEMP:  67;                                

SPRINGFIELD    FAIR      68  19  15 SW6       30.23F                  
6HR MIN TEMP:  37; 6HR MAX TEMP:  70;                                

HIGHGATE*      FAIR      73  32  22 S9        30.17F                  
6HR MIN TEMP:  53; 6HR MAX TEMP:  71;                                

NEWPORT*       FAIR      69  28  21 S9        30.18F                  
6HR MIN TEMP:  48; 6HR MAX TEMP:  68;                                

BENNINGTON     FAIR      69  22  16 SE13      30.24F                  
6HR MIN TEMP:  48; 6HR MAX TEMP:  69;                                

UNION VILLAGE*   N/A     73 N/A N/A MISG        N/A                   

_____LAKE CHAMPLAIN_____

  
CITY           SKY/WX    TMP DP  RH WIND       PRES   REMARKS
BURTON ISLAND*   N/A     54  34  47 SW10G16     N/A                   
COLCHESTER RF*   N/A     54  32  43 S23         N/A                   
DIAMOND ISL*     N/A     66  28  24 SE18        N/A                   

$$


SKY/WX - Weather  TMP - Temperature  DP - Dewpoint  RH - Relative Humidity
WIND - Wind Direction/Speed PRES - Barometric Pressure